Home > Time Zones > World Clock > Weather > Palau > Koror > Past weeks

Flag for Palau Weather past 2 weeks in Koror, Palau

Now
79 °F

Partly cloudy.


Feels Like: 82 °F
Forecast: 79 / 90 °F
Wind: No wind

Location: Koror / Palau Island

Current Time: May 23, 2015 at 11:00:46 PM

Latest Report: May 23, 2015 at 9:50 PM


Visibility: 14 mi

Pressure: 29.88 "Hg

Humidity: 89%

Dew point: 75 °F

Location of KororLocation

Historic Weather in Koror — Graph

°F

Koror temperature yesterday

Maximum temperature yesterday: 86 °F (at 2:50 PM)
Minimum temperature yesterday: 75 °F (at 1:50 AM)
Average temperature yesterday: 81 °F

Past Weeks' High & Low Weather Summary

 TemperatureHumidityPressure
High90 °F (May 10, 12:50 PM)100% (May 9, 2:50 AM)29.96 "Hg (May 9, 2:50 AM)
Low75 °F (May 9, 2:50 AM)55% (May 21, 1:50 PM)29.75 "Hg (May 16, 2:50 PM)
Average82 °F82%29.86 "Hg
* Reported May 8 9:54 PM — May 23 9:50 PM, Koror, Weather by CustomWeather, © 2015

Note: Actual official high and low records may vary slightly from our data, if they occured in-between our weather recording intervals... More about our weather records

Advertising

Koror weather history for previous 24 hours

 ConditionsComfort  
Time TempWeatherWind HumidityBarometerVisibility
9:50 PM
Sat, May 23
79 °FPartly cloudy.No wind89%29.88 "Hg14 mi
8:50 PM79 °FPartly cloudy.No wind89%29.87 "Hg14 mi
7:50 PM81 °FPartly cloudy.No wind84%29.86 "Hg14 mi
6:51 PM82 °FPartly cloudy.No wind84%29.85 "Hg15 mi
5:55 PM84 °FBroken clouds.6 mph74%29.84 "Hg15 mi
4:53 PM86 °FBroken clouds.8 mph70%29.81 "Hg15 mi
3:55 PM86 °FBroken clouds.7 mph70%29.81 "Hg15 mi
2:54 PM88 °FBroken clouds.9 mph66%29.81 "Hg15 mi
1:53 PM86 °FBroken clouds.10 mph70%29.82 "Hg15 mi
12:53 PM88 °FBroken clouds.8 mph70%29.85 "Hg15 mi
11:53 AM90 °FBroken clouds.10 mph63%29.87 "Hg15 mi
10:50 AM88 °FBroken clouds.7 mph70%29.89 "Hg15 mi
9:55 AM86 °FBroken clouds.10 mph75%29.89 "Hg15 mi
8:50 AM86 °FBroken clouds.9 mph79%29.89 "Hg15 mi
7:55 AM79 °FScattered showers. Partly sunny.3 mph94%29.89 "Hg14 mi
6:55 AM79 °FPartly sunny.3 mph94%29.89 "Hg14 mi
5:55 AM79 °FScattered showers. Partly sunny.5 mph94%29.88 "Hg14 mi
5:50 AM79 °FPartly sunny.6 mph94%29.87 "Hg15 mi
4:55 AM79 °FPartly cloudy.8 mph94%29.87 "Hg14 mi
3:50 AM79 °FPartly cloudy.3 mph94%29.86 "Hg14 mi
2:50 AM79 °FPartly cloudy.3 mph89%29.85 "Hg14 mi
1:50 AM79 °FPartly cloudy.3 mph89%29.86 "Hg14 mi
12:50 AM79 °FPartly cloudy.3 mph89%29.87 "Hg14 mi
11:50 PM
Fri, May 22
79 °FPartly cloudy.No wind94%29.88 "Hg14 mi
Weather by CustomWeather, © 2015

See weather overviewHow to use our weather pages